SWR1BG LSZH-EDDS

Flight info

Callsign SWR1BG
Flight time 0h 33m
Altitude 19000
Route DEGES Z1 BODAN/N0374F180 Z1 ALAGO Z4 ARSUT T125 REUTL REUTL1W
Aircraft A320/M-SDE3FGHIRWY/LB1

Departure

Time 2026-05-05 18:43
Airport Zürich Airport (LSZH)

Arrival

Time 2026-05-05 19:16
Airport Stuttgart Airport (EDDS)
Time Latitude Longitude Altitude Speed Heading
2026-05-05 18:22 47.45427 8.55803 1403 ft 0 kts 186°
2026-05-05 18:33 47.45431 8.55804 1397 ft 3 kts 186°
2026-05-05 18:34 47.45458 8.55808 1404 ft 4 kts 186°
2026-05-05 18:34 47.45484 8.55810 1401 ft 4 kts 172°
2026-05-05 18:34 47.45504 8.55799 1406 ft 4 kts 104°
2026-05-05 18:34 47.45507 8.55764 1402 ft 4 kts 96°
2026-05-05 18:35 47.45510 8.55724 1402 ft 4 kts 96°
2026-05-05 18:35 47.45513 8.55686 1404 ft 3 kts 96°
2026-05-05 18:35 47.45513 8.55682 1405 ft 0 kts 96°
2026-05-05 18:36 47.45512 8.55699 1406 ft 11 kts 96°
2026-05-05 18:37 47.45498 8.55882 1397 ft 20 kts 95°
2026-05-05 18:37 47.45485 8.56082 1397 ft 19 kts 95°
2026-05-05 18:37 47.45472 8.56284 1399 ft 20 kts 90°
2026-05-05 18:37 47.45534 8.56341 1397 ft 8 kts 356°
2026-05-05 18:38 47.45584 8.56361 1397 ft 7 kts 34°
2026-05-05 18:38 47.45597 8.56423 1397 ft 9 kts 92°
2026-05-05 18:38 47.45591 8.56524 1400 ft 9 kts 96°
2026-05-05 18:38 47.45585 8.56609 1397 ft 8 kts 96°
2026-05-05 18:39 47.45579 8.56689 1397 ft 7 kts 96°
2026-05-05 18:39 47.45574 8.56768 1399 ft 8 kts 96°
2026-05-05 18:39 47.45569 8.56841 1397 ft 7 kts 96°
2026-05-05 18:39 47.45564 8.56902 1397 ft 5 kts 96°
2026-05-05 18:40 47.45561 8.56949 1397 ft 4 kts 96°
2026-05-05 18:40 47.45562 8.56965 1397 ft 6 kts 81°
2026-05-05 18:40 47.45577 8.57000 1406 ft 0 kts 45°
2026-05-05 18:41 47.45577 8.57001 1406 ft 2 kts 44°
2026-05-05 18:41 47.45650 8.56994 1398 ft 9 kts 313°
2026-05-05 18:41 47.45669 8.56916 1399 ft 4 kts 276°
2026-05-05 18:42 47.45669 8.56915 1399 ft 4 kts 276°
2026-05-05 18:42 47.45705 8.56372 1408 ft 100 kts 275°
2026-05-05 18:42 47.45799 8.54950 1400 ft 174 kts 272°
2026-05-05 18:43 47.45916 8.53011 1838 ft 203 kts 275°
2026-05-05 18:43 47.46068 8.50759 2214 ft 235 kts 275°
2026-05-05 18:43 47.46230 8.48190 2570 ft 267 kts 274°
2026-05-05 18:43 47.46092 8.45355 3033 ft 290 kts 249°
2026-05-05 18:44 47.44921 8.42839 3629 ft 307 kts 230°
2026-05-05 18:44 47.43478 8.40428 4380 ft 315 kts 231°
2026-05-05 18:44 47.42137 8.38007 5917 ft 296 kts 226°
2026-05-05 18:44 47.40439 8.36244 6694 ft 313 kts 205°
2026-05-05 18:45 47.38223 8.35487 6966 ft 344 kts 185°
2026-05-05 18:45 47.35780 8.36101 7175 ft 375 kts 160°
2026-05-05 18:45 47.33597 8.38376 7626 ft 396 kts 135°
2026-05-05 18:45 47.32193 8.41913 8307 ft 409 kts 110°
2026-05-05 18:46 47.31782 8.46095 9020 ft 417 kts 91°
2026-05-05 18:46 47.32178 8.50350 9754 ft 423 kts 79°
2026-05-05 18:46 47.32770 8.54616 10410 ft 426 kts 80°
2026-05-05 18:46 47.33351 8.58912 11030 ft 430 kts 80°
2026-05-05 18:47 47.33927 8.63263 11646 ft 434 kts 81°
2026-05-05 18:47 47.34498 8.67665 12255 ft 439 kts 81°
2026-05-05 18:47 47.35065 8.72062 12822 ft 443 kts 81°
2026-05-05 18:47 47.35644 8.76544 13408 ft 446 kts 80°
2026-05-05 18:48 47.36229 8.81055 13988 ft 448 kts 80°
2026-05-05 18:48 47.36815 8.85575 14499 ft 450 kts 80°
2026-05-05 18:48 47.37404 8.90127 14991 ft 453 kts 80°
2026-05-05 18:48 47.37995 8.94702 15473 ft 455 kts 80°
2026-05-05 18:49 47.38595 8.99307 15936 ft 458 kts 79°
2026-05-05 18:49 47.39621 9.03769 16337 ft 462 kts 64°
2026-05-05 18:49 47.41412 9.07711 16766 ft 465 kts 48°
2026-05-05 18:49 47.43881 9.10798 17189 ft 467 kts 31°
2026-05-05 18:50 47.46831 9.12758 17584 ft 467 kts 14°
2026-05-05 18:50 47.50014 9.13747 17966 ft 468 kts
2026-05-05 18:50 47.53235 9.14642 18306 ft 471 kts
2026-05-05 18:50 47.56460 9.15541 18610 ft 473 kts
2026-05-05 18:51 47.59707 9.16457 18830 ft 475 kts
2026-05-05 18:51 47.62953 9.17378 18881 ft 475 kts
2026-05-05 18:51 47.66203 9.18306 18875 ft 475 kts
2026-05-05 18:51 47.69448 9.19233 18874 ft 474 kts
2026-05-05 18:52 47.72650 9.20149 18885 ft 474 kts
2026-05-05 18:52 47.75886 9.21080 18780 ft 472 kts
2026-05-05 18:52 47.79115 9.22014 18439 ft 471 kts
2026-05-05 18:52 47.82323 9.22942 18175 ft 470 kts
2026-05-05 18:53 47.85531 9.23871 17978 ft 469 kts
2026-05-05 18:53 47.88721 9.24862 17849 ft 467 kts 10°
2026-05-05 18:53 47.91895 9.25927 17754 ft 467 kts 11°
2026-05-05 18:53 47.95055 9.27041 17690 ft 466 kts 12°
2026-05-05 18:54 47.98215 9.28174 17632 ft 466 kts 12°
2026-05-05 18:54 48.01327 9.29288 17239 ft 453 kts 11°
2026-05-05 18:54 48.04354 9.30357 16762 ft 441 kts 11°
2026-05-05 18:54 48.07306 9.31383 16305 ft 430 kts 11°
2026-05-05 18:55 48.10191 9.32377 15847 ft 421 kts 11°
2026-05-05 18:55 48.13023 9.33346 15409 ft 414 kts 11°
2026-05-05 18:55 48.15806 9.34303 14946 ft 407 kts 11°
2026-05-05 18:55 48.18543 9.35250 14510 ft 400 kts 11°
2026-05-05 18:56 48.21241 9.36184 14124 ft 393 kts 11°
2026-05-05 18:56 48.23840 9.37085 14122 ft 375 kts 11°
2026-05-05 18:56 48.26292 9.37939 14113 ft 358 kts 11°
2026-05-05 18:56 48.28666 9.38768 14111 ft 343 kts 10°
2026-05-05 18:57 48.30942 9.39567 14112 ft 331 kts 10°
2026-05-05 18:57 48.33201 9.40358 14112 ft 328 kts 10°
2026-05-05 18:57 48.35390 9.41121 14108 ft 327 kts 10°
2026-05-05 18:57 48.37600 9.41892 13914 ft 325 kts 10°
2026-05-05 18:58 48.39797 9.42655 13576 ft 323 kts 10°
2026-05-05 18:58 48.41984 9.43414 13194 ft 322 kts 10°
2026-05-05 18:58 48.44165 9.44179 12817 ft 320 kts 10°
2026-05-05 18:58 48.46332 9.44943 12468 ft 319 kts 10°
2026-05-05 18:59 48.48489 9.45705 12102 ft 318 kts
2026-05-05 18:59 48.50639 9.46459 11738 ft 316 kts
2026-05-05 18:59 48.52776 9.47206 11351 ft 315 kts
2026-05-05 18:59 48.54901 9.47952 10999 ft 312 kts
2026-05-05 19:00 48.56990 9.48691 10853 ft 304 kts
2026-05-05 19:00 48.58965 9.49728 10717 ft 299 kts 29°
2026-05-05 19:00 48.60462 9.51837 10600 ft 292 kts 57°
2026-05-05 19:00 48.61449 9.54474 10373 ft 286 kts 64°
2026-05-05 19:01 48.62345 9.57156 10101 ft 285 kts 60°
2026-05-05 19:01 48.63604 9.59365 9772 ft 281 kts 33°
2026-05-05 19:01 48.65361 9.60516 9400 ft 274 kts
2026-05-05 19:01 48.67213 9.61159 9065 ft 272 kts 10°
2026-05-05 19:02 48.69040 9.61906 8767 ft 270 kts 12°
2026-05-05 19:02 48.70832 9.62744 8480 ft 267 kts 10°
2026-05-05 19:02 48.72631 9.63001 8177 ft 255 kts 347°
2026-05-05 19:02 48.74236 9.62131 7797 ft 239 kts 315°
2026-05-05 19:03 48.75132 9.60157 7398 ft 226 kts 279°
2026-05-05 19:03 48.75148 9.57829 7020 ft 221 kts 261°
2026-05-05 19:03 48.74937 9.55499 6583 ft 225 kts 259°
2026-05-05 19:03 48.74660 9.53143 6130 ft 229 kts 256°
2026-05-05 19:04 48.74262 9.50799 5658 ft 231 kts 252°
2026-05-05 19:04 48.73798 9.48472 5303 ft 228 kts 258°
2026-05-05 19:04 48.73718 9.46227 5522 ft 203 kts 282°
2026-05-05 19:04 48.74339 9.44432 5697 ft 184 kts 299°
2026-05-05 19:05 48.75087 9.42920 5789 ft 176 kts 306°
2026-05-05 19:05 48.76226 9.41998 6086 ft 207 kts 347°
2026-05-05 19:05 48.77762 9.42206 5998 ft 233 kts 12°
2026-05-05 19:05 48.79133 9.43531 5991 ft 240 kts 50°
2026-05-05 19:06 48.79942 9.45754 6071 ft 243 kts 65°
2026-05-05 19:06 48.80623 9.48106 5992 ft 243 kts 68°
2026-05-05 19:06 48.81256 9.50484 5911 ft 242 kts 69°
2026-05-05 19:06 48.81867 9.52861 5847 ft 242 kts 70°
2026-05-05 19:07 48.82483 9.55233 5779 ft 242 kts 69°
2026-05-05 19:07 48.82873 9.56817 5777 ft 241 kts 71°
2026-05-05 19:07 48.83451 9.60090 5748 ft 238 kts 99°
2026-05-05 19:07 48.82698 9.62127 5787 ft 220 kts 150°
2026-05-05 19:08 48.81388 9.63285 5808 ft 217 kts 161°
2026-05-05 19:08 48.80038 9.64125 5583 ft 204 kts 167°
2026-05-05 19:08 48.78716 9.64343 5176 ft 190 kts 201°
2026-05-05 19:08 48.77676 9.63258 4845 ft 181 kts 234°
2026-05-05 19:09 48.77144 9.61567 4547 ft 176 kts 250°
2026-05-05 19:09 48.76728 9.59869 4372 ft 165 kts 250°
2026-05-05 19:09 48.76344 9.58290 4274 ft 154 kts 249°
2026-05-05 19:09 48.75973 9.56803 4137 ft 152 kts 249°
2026-05-05 19:10 48.75568 9.55255 4092 ft 161 kts 248°
2026-05-05 19:10 48.75136 9.53681 4066 ft 161 kts 247°
2026-05-05 19:10 48.74690 9.52118 4087 ft 162 kts 247°
2026-05-05 19:10 48.74277 9.50528 4103 ft 163 kts 252°
2026-05-05 19:11 48.73944 9.48888 4076 ft 163 kts 253°
2026-05-05 19:11 48.73759 9.47789 4099 ft 163 kts 255°
2026-05-05 19:11 48.73465 9.46131 4055 ft 163 kts 253°
2026-05-05 19:11 48.73145 9.44472 3881 ft 164 kts 252°
2026-05-05 19:12 48.72835 9.42874 3765 ft 153 kts 255°
2026-05-05 19:12 48.72586 9.41348 3556 ft 147 kts 256°
2026-05-05 19:12 48.72354 9.39862 3342 ft 143 kts 254°
2026-05-05 19:12 48.72070 9.38447 3174 ft 138 kts 251°
2026-05-05 19:13 48.71762 9.37080 2883 ft 139 kts 252°
2026-05-05 19:13 48.71492 9.35660 2553 ft 140 kts 254°
2026-05-05 19:13 48.71276 9.34257 2367 ft 135 kts 257°
2026-05-05 19:13 48.71048 9.32881 2275 ft 135 kts 251°
2026-05-05 19:14 48.70756 9.31538 2169 ft 135 kts 250°
2026-05-05 19:14 48.70466 9.30176 2015 ft 137 kts 255°
2026-05-05 19:14 48.70213 9.28781 1848 ft 137 kts 254°
2026-05-05 19:14 48.69963 9.27376 1683 ft 138 kts 253°
2026-05-05 19:15 48.69691 9.25982 1469 ft 138 kts 253°
2026-05-05 19:15 48.69434 9.24596 1327 ft 137 kts 253°
2026-05-05 19:15 48.69177 9.23200 1287 ft 141 kts 254°
2026-05-05 19:15 48.68940 9.21949 1287 ft 107 kts 254°
2026-05-05 19:16 48.68767 9.21029 1285 ft 55 kts 254°
2026-05-05 19:16 48.68676 9.20555 1286 ft 39 kts 254°
2026-05-05 19:16 48.68677 9.20335 1289 ft 19 kts 282°
2026-05-05 19:16 48.68709 9.20153 1289 ft 16 kts 285°
2026-05-05 19:17 48.68726 9.20072 1286 ft 0 kts 288°
2026-05-05 19:17 48.68785 9.19968 1285 ft 22 kts 315°
2026-05-05 19:17 48.68872 9.19871 1285 ft 12 kts 336°
2026-05-05 19:18 48.68877 9.19762 1285 ft 8 kts 253°
2026-05-05 19:18 48.68870 9.19731 1287 ft 0 kts 253°
2026-05-05 19:18 48.68867 9.19716 1287 ft 4 kts 253°
2026-05-05 19:18 48.68861 9.19682 1285 ft 3 kts 255°
2026-05-05 19:19 48.68866 9.19665 1285 ft 2 kts 307°
2026-05-05 19:19 48.68884 9.19660 1288 ft 2 kts 356°
2026-05-05 19:19 48.68898 9.19659 1286 ft 2 kts 356°
2026-05-05 19:19 48.68913 9.19657 1288 ft 3 kts 355°
2026-05-05 19:20 48.68925 9.19653 1285 ft 0 kts 344°
2026-05-05 19:20 48.68928 9.19653 1285 ft 0 kts 343°